Flag for Canada Weather past 2 weeks in Cape Dorset, Nunavut, Canada

Now
37 °F

Light rain. Fog.


Feels Like: 26 °F
Forecast: 37 / 41 °F
Wind: 24 mph from East

Location: Cape Dorset

Current Time: Jul 7, 2015 at 3:35:03 AM

Latest Report: Jul 7, 2015 at 3:00 AM


Visibility: 1 mi

Pressure: 29.43 "Hg

Humidity: 100%

Dew point: 37 °F

Location of Cape DorsetLocation

Historic Weather in Cape Dorset — Graph

°F

Cape Dorset temperature yesterday

Maximum temperature yesterday: 43 °F (at 9:01 PM)
Minimum temperature yesterday: 30 °F (at 6:00 AM)
Average temperature yesterday: 36 °F

Past Weeks' High & Low Weather Summary

 TemperatureHumidityPressure
High52 °F (Jul 4, 7:00 PM)100% (Jun 22, 2:00 AM)30.06 "Hg (Jun 22, 2:00 AM)
Low30 °F (Jul 6, 6:00 AM)50% (Jul 4, 7:00 PM)29.43 "Hg (Jul 7, 2:03 AM)
Average37 °F91%29.77 "Hg
* Reported Jun 22 2:00 AM — Jul 7 2:03 AM, Cape Dorset, Weather by CustomWeather, © 2015

Note: Actual official high and low records may vary slightly from our data, if they occured in-between our weather recording intervals... More about our weather records

Advertising

Cape Dorset weather history for previous 24 hours

 ConditionsComfort  
Time TempWeatherWind HumidityBarometerVisibility
2:03 AM
Tue, Jul 7
39 °FLight rain. Fog.31 mph100%29.43 "Hg2 mi
1:01 AM41 °FLight rain. Fog.26 mph93%29.45 "Hg2 mi
12:00 AM41 °FLight rain. Fog.26 mph100%29.47 "Hg4 mi
11:00 PM
Mon, Jul 6
43 °FLight rain. Fog.22 mph93%29.52 "Hg6 mi
10:00 PM43 °FLight rain. Cloudy.21 mph100%29.58 "Hg8 mi
9:53 PM43 °FLight rain. Cloudy.22 mph100%29.59 "Hg8 mi
9:01 PM43 °FLight rain. Fog.20 mph100%29.62 "Hg6 mi
8:00 PM41 °FLight rain. Fog.25 mph100%29.65 "Hg4 mi
7:00 PM37 °FLight rain. Fog.15 mph100%29.69 "Hg1 mi
6:04 PM37 °FLight rain. Fog.17 mph100%29.72 "Hg2 mi
5:54 PM37 °FLight rain. Fog.15 mph100%29.72 "Hg2 mi
5:00 PM37 °FLight rain. Fog.9 mph100%29.75 "Hg2 mi
4:00 PM37 °FLight rain. Fog.12 mph100%29.77 "Hg1 mi
3:00 PM37 °FLight rain. Fog.18 mph100%29.78 "Hg4 mi
2:00 PM36 °FLight rain. Fog.17 mph100%29.80 "Hg4 mi
1:52 PM36 °FLight rain. Fog.18 mph100%29.80 "Hg2 mi
1:00 PM36 °FLight rain. Fog.20 mph100%29.81 "Hg6 mi
12:00 PM36 °FLight rain. Low clouds.22 mph100%29.83 "Hg15 mi
11:00 AM36 °FLight rain. Low clouds.23 mph100%29.87 "Hg15 mi
10:00 AM34 °FDrizzle. Fog.23 mph100%29.88 "Hg1 mi
9:00 AM34 °FDrizzle. Fog.18 mph100%29.90 "Hg0 mi
8:00 AM32 °FDrizzle. Fog.17 mph100%29.92 "Hg0 mi
7:50 AM32 °FLight freezing rain. Fog.17 mph100%29.93 "Hg0 mi
7:00 AM32 °FFog.20 mph100%29.93 "Hg0 mi
6:51 AM32 °FLight freezing rain. Fog.22 mph100%29.94 "Hg0 mi
6:00 AM30 °FIce fog.17 mph100%29.95 "Hg1 mi
5:00 AM32 °FIce fog.17 mph100%29.96 "Hg1 mi
4:00 AM32 °FFog.8 mph100%29.98 "Hg1 mi
3:00 AM32 °FIce fog.7 mph100%30.00 "Hg0 mi
Weather by CustomWeather, © 2015

See weather overviewHow to use our weather pages